Weather History for KCOD - March, 2014

Change the Weather History Date:

Tuesday, March 4, 2014

  Actual Average Record
Temperature  
Mean Temperature 37 °F -  
Max Temperature 44 °F 42 °F 65 °F (1937)
Min Temperature 30 °F 17 °F -15 °F (1989)
Degree Days  
Heating Degree Days 28    
Moisture  
Dew Point 30 °F    
Average Humidity 77    
Maximum Humidity 100    
Minimum Humidity 53    
Precipitation  
Precipitation 0.03 in - - ()
Sea Level Pressure  
Sea Level Pressure 29.88 in    
Wind  
Wind Speed 6 mph (SE)    
Max Wind Speed 13 mph    
Max Gust Speed 17 mph    
Visibility 10 miles    
Events      
Averages and records for this station are not official NWS values.
T = Trace of Precipitation, MM = Missing Value Source: NWS Daily Summary

Daily Weather History Graph

Daily Weather History Graph

Search for Another Location

Airport or City:

Trip Planner

Search our weather history database for the weather conditions in past years. The results will help you decide how hot, cold, wet, or windy it might be!

Date:

Astronomy

Mar. 04, 2014 Rise Set
Actual Time 6:48 AM MST 6:08 PM MST
Civil Twilight 6:19 AM MST 6:37 PM MST
Nautical Twilight 5:45 AM MST 7:10 PM MST
Astronomical Twilight 5:11 AM MST 7:44 PM MST
Moon 8:26 AM MST (3/4) 10:30 PM MST (3/4)
Length of Visible Light 12h 18m
Length of Day
11h 19m
Waxing Crescent, 15% of the Moon is Illuminated
Mar 4
Waxing Crescent
Mar 8
First Quarter
Mar 16
Full
Mar 23
Last Quarter
Mar 30
New

Hourly Weather History & Observations

Time (MST) Temp. Windchill Dew Point Humidity Pressure Visibility Wind Dir Wind Speed Gust Speed Precip Events Conditions
12:15 AM 41.0 °F 38.0 °F 28.4 °F 61% 29.78 in 10.0 mi South 4.6 mph - N/A   Clear
12:35 AM 44.6 °F 39.2 °F 28.4 °F 53% 29.78 in 10.0 mi WSW 10.4 mph 16.1 mph N/A   Clear
12:55 AM 44.6 °F 39.2 °F 28.4 °F 53% 29.79 in 10.0 mi West 10.4 mph 17.3 mph N/A   Mostly Cloudy
1:15 AM 44.6 °F 41.4 °F 28.4 °F 53% 29.80 in 10.0 mi WSW 5.8 mph - N/A   Mostly Cloudy
1:35 AM 44.6 °F - 28.4 °F 53% 29.79 in 10.0 mi Calm Calm - N/A   Partly Cloudy
1:55 AM 42.8 °F 38.0 °F 28.4 °F 57% 29.78 in 10.0 mi NE 8.1 mph - N/A   Clear
2:15 AM 39.2 °F 37.0 °F 28.4 °F 65% 29.78 in 10.0 mi ESE 3.5 mph - N/A   Partly Cloudy
2:35 AM 41.0 °F 35.2 °F 30.2 °F 65% 29.79 in 10.0 mi SW 9.2 mph - N/A   Clear
2:55 AM 37.4 °F 29.8 °F 28.4 °F 70% 29.81 in 10.0 mi NE 11.5 mph - N/A   Clear
3:15 AM 35.6 °F 28.6 °F 30.2 °F 81% 29.80 in 10.0 mi NE 9.2 mph - N/A   Mostly Cloudy
3:35 AM 35.6 °F 31.7 °F 30.2 °F 81% 29.81 in 10.0 mi North 4.6 mph - N/A   Scattered Clouds
3:55 AM 35.6 °F 30.7 °F 30.2 °F 81% 29.82 in 10.0 mi North 5.8 mph - N/A   Mostly Cloudy
4:15 AM 35.6 °F 32.8 °F 30.2 °F 81% 29.82 in 10.0 mi NNE 3.5 mph - N/A   Overcast
4:35 AM 35.6 °F 30.7 °F 30.2 °F 81% 29.82 in 10.0 mi NE 5.8 mph - N/A   Overcast
4:55 AM 33.8 °F 28.6 °F 32.0 °F 93% 29.82 in 10.0 mi NE 5.8 mph - N/A   Overcast
5:15 AM 33.8 °F 27.0 °F 33.8 °F 100% 29.82 in 10.0 mi West 8.1 mph - N/A   Overcast
5:35 AM 33.8 °F 27.0 °F 32.0 °F 93% 29.84 in 5.0 mi NW 8.1 mph - N/A   Mostly Cloudy
5:55 AM 35.6 °F 32.8 °F 33.8 °F 93% 29.84 in 10.0 mi NW 3.5 mph - 0.02 in   Overcast
6:15 AM 33.8 °F 26.4 °F 32.0 °F 93% 29.83 in 10.0 mi South 9.2 mph - 0.01 in   Overcast
6:35 AM 33.8 °F 25.3 °F 33.8 °F 100% 29.83 in 10.0 mi SSE 11.5 mph - 0.01 in   Overcast
6:55 AM 35.6 °F 28.6 °F 33.8 °F 93% 29.83 in 10.0 mi SE 9.2 mph - 0.01 in   Mostly Cloudy
7:15 AM 35.6 °F 29.9 °F 33.8 °F 93% 29.83 in 10.0 mi WSW 6.9 mph - N/A   Partly Cloudy
7:35 AM 39.2 °F 31.6 °F 30.2 °F 70% 29.82 in 10.0 mi WSW 12.7 mph - N/A   Clear
7:55 AM 35.6 °F - 30.2 °F 81% 29.84 in 10.0 mi Calm Calm - N/A   Clear
8:15 AM 35.6 °F 32.8 °F 32.0 °F 87% 29.84 in 10.0 mi NNW 3.5 mph - N/A   Clear
8:35 AM 35.6 °F - 32.0 °F 87% 29.84 in 10.0 mi Calm Calm - N/A   Clear
8:55 AM 37.4 °F 33.8 °F 32.0 °F 81% 29.85 in 10.0 mi SE 4.6 mph - N/A   Clear
9:15 AM 37.4 °F 33.8 °F 30.2 °F 75% 29.86 in 10.0 mi East 4.6 mph - N/A   Clear
9:35 AM 39.2 °F 37.0 °F 30.2 °F 70% 29.87 in 10.0 mi NNW 3.5 mph - N/A   Clear
9:55 AM 41.0 °F - 32.0 °F 70% 29.86 in 10.0 mi Calm Calm - N/A   Clear
10:15 AM 42.8 °F - 33.8 °F 70% 29.87 in 10.0 mi Calm Calm - N/A   Clear
10:35 AM 41.0 °F 38.0 °F 33.8 °F 76% 29.87 in 10.0 mi SSE 4.6 mph - N/A   Clear
10:55 AM 41.0 °F 35.2 °F 30.2 °F 65% 29.87 in 10.0 mi ENE 9.2 mph - N/A   Clear
11:15 AM 42.8 °F 40.1 °F 28.4 °F 57% 29.87 in 10.0 mi East 4.6 mph - N/A   Clear
11:35 AM 42.8 °F 38.0 °F 26.6 °F 53% 29.88 in 10.0 mi South 8.1 mph - N/A   Clear
11:55 AM 42.8 °F 38.0 °F 28.4 °F 57% 29.87 in 10.0 mi East 8.1 mph - N/A   Clear
12:15 PM 42.8 °F 38.6 °F 28.4 °F 57% 29.87 in 10.0 mi ESE 6.9 mph - N/A   Clear
12:35 PM 42.8 °F 39.3 °F 26.6 °F 53% 29.87 in 10.0 mi East 5.8 mph - N/A   Partly Cloudy
12:55 PM 42.8 °F 37.5 °F 26.6 °F 53% 29.87 in 10.0 mi East 9.2 mph - N/A   Scattered Clouds
1:15 PM 42.8 °F 38.0 °F 26.6 °F 53% 29.86 in 10.0 mi East 8.1 mph - N/A   Partly Cloudy
1:35 PM 42.8 °F 40.1 °F 28.4 °F 57% 29.87 in 10.0 mi ENE 4.6 mph - N/A   Clear
1:55 PM 42.8 °F 37.5 °F 28.4 °F 57% 29.87 in 10.0 mi NE 9.2 mph - N/A   Clear
2:15 PM 39.2 °F 34.2 °F 32.0 °F 75% 29.87 in 10.0 mi NE 6.9 mph - N/A   Clear
2:35 PM 37.4 °F 33.8 °F 33.8 °F 87% 29.88 in 10.0 mi NE 4.6 mph - N/A   Mostly Cloudy
2:55 PM 37.4 °F 32.1 °F 33.8 °F 87% 29.88 in 10.0 mi ENE 6.9 mph - N/A   Overcast
3:15 PM 37.4 °F 30.8 °F 33.8 °F 87% 29.89 in 10.0 mi North 9.2 mph - N/A   Mostly Cloudy
3:35 PM 37.4 °F 31.4 °F 33.8 °F 87% 29.90 in 10.0 mi North 8.1 mph - N/A   Overcast
3:55 PM 37.4 °F 29.8 °F 33.8 °F 87% 29.90 in 10.0 mi NNE 11.5 mph - N/A   Mostly Cloudy
4:15 PM 39.2 °F - 32.0 °F 75% 29.91 in 10.0 mi Calm Calm - N/A   Mostly Cloudy
4:35 PM 39.2 °F - 32.0 °F 75% 29.91 in 10.0 mi Calm Calm - N/A   Scattered Clouds
4:55 PM 39.2 °F - 33.8 °F 81% 29.92 in 10.0 mi Calm Calm - N/A   Partly Cloudy
5:15 PM 39.2 °F 37.0 °F 32.0 °F 75% 29.93 in 10.0 mi NE 3.5 mph - N/A   Partly Cloudy
5:35 PM 37.4 °F - 33.8 °F 87% 29.94 in 10.0 mi Calm Calm - N/A   Scattered Clouds
5:55 PM 37.4 °F 33.8 °F 33.8 °F 87% 29.95 in 10.0 mi NE 4.6 mph - N/A   Mostly Cloudy
6:15 PM 35.6 °F 31.7 °F 33.8 °F 93% 29.95 in 10.0 mi SSE 4.6 mph - N/A   Overcast
6:35 PM 35.6 °F 31.7 °F 32.0 °F 87% 29.96 in 10.0 mi SSE 4.6 mph - N/A   Scattered Clouds
6:55 PM 33.8 °F 28.6 °F 30.2 °F 87% 29.96 in 10.0 mi South 5.8 mph - N/A   Clear
7:15 PM 33.8 °F 28.6 °F 30.2 °F 87% 29.96 in 10.0 mi SSE 5.8 mph - N/A   Clear
7:35 PM 32.0 °F 25.6 °F 30.2 °F 93% 29.97 in 10.0 mi South 6.9 mph - N/A   Clear
7:55 PM 32.0 °F 27.5 °F 30.2 °F 93% 29.97 in 10.0 mi South 4.6 mph - N/A   Clear
8:15 PM 32.0 °F 28.7 °F 28.4 °F 87% 29.98 in 10.0 mi SSE 3.5 mph - N/A   Clear
8:35 PM 32.0 °F 27.5 °F 28.4 °F 87% 29.98 in 10.0 mi SW 4.6 mph - N/A   Clear
8:55 PM 30.2 °F 24.3 °F 28.4 °F 93% 29.98 in 10.0 mi South 5.8 mph - N/A   Clear
9:15 PM 30.2 °F - 26.6 °F 86% 29.99 in 10.0 mi Calm Calm - N/A   Clear
9:35 PM 30.2 °F - 26.6 °F 86% 29.98 in 10.0 mi Calm Calm - N/A   Clear
9:55 PM 30.2 °F 25.4 °F 24.8 °F 80% 29.99 in 10.0 mi South 4.6 mph - N/A   Clear
10:15 PM 30.2 °F 25.4 °F 24.8 °F 80% 29.98 in 10.0 mi South 4.6 mph - N/A   Clear
10:35 PM 30.2 °F 21.9 °F 24.8 °F 80% 29.98 in 10.0 mi South 9.2 mph - N/A   Clear
10:55 PM 30.2 °F 20.8 °F 23.0 °F 75% 29.98 in 10.0 mi South 11.5 mph - N/A   Clear
11:15 PM 30.2 °F 23.4 °F 23.0 °F 75% 29.99 in 10.0 mi South 6.9 mph - N/A   Clear
11:35 PM 30.2 °F 23.4 °F 23.0 °F 75% 29.99 in 10.0 mi SSW 6.9 mph - N/A   Clear
11:55 PM 32.0 °F 27.5 °F 21.2 °F 64% 29.99 in 10.0 mi SW 4.6 mph - N/A   Clear